Weather History for Canton, GA

Change the Weather History Date:

Saturday, December 1, 2012

  Actual Average (KGVL) Record (KGVL)
Temperature  
Mean Temperature 52 °F 47 °F  
Max Temperature 68 °F 56 °F 73 °F (1941)
Min Temperature 35 °F 39 °F 16 °F (1964)
Degree Days  
Heating Degree Days 14 18  
Month to date heating degree days 18  
Since 1 July heating degree days 553  
Growing Degree Days 2 (Base 50)    
Moisture  
Dew Point 35 °F    
Average Humidity 58    
Maximum Humidity 87    
Minimum Humidity 26    
Precipitation  
Precipitation 0.00 in 0.17 in 1.56 in (1974)
Month to date precipitation 0.17  
Snow  
Snow - - - ()
Month to date snowfall  
Since 1 July snowfall  
Snow Depth -    
Sea Level Pressure  
Sea Level Pressure 30.32 in    
Wind  
Wind Speed 1 mph ()    
Max Wind Speed 9 mph    
Max Gust Speed -    
Visibility 8.3 miles    
Events      
T = Trace of Precipitation, MM = Missing Value Source: Averaged Metar Reports

Daily Weather History Graph

Daily Weather History Graph

Search for Another Location

Airport:

Trip Planner

Search our weather history database for the weather conditions in past years. The results will help you decide how hot, cold, wet, or windy it might be!

Date:

Astronomy

Dec. 01, 2012 Rise Set
Actual Time 7:26 AM EST 5:27 PM EST
Civil Twilight 6:58 AM EST 5:55 PM EST
Nautical Twilight 6:27 AM EST 6:26 PM EST
Astronomical Twilight 5:57 AM EST 6:56 PM EST
Moon 8:14 PM EST (12/1) 9:40 AM EST (12/1)
Length of Visible Light 10h 56m
Length of Day
10h 01m
Waning Gibbous, 92% of the Moon is Illuminated
Dec 1
Waning Gibbous
Dec 6
Last Quarter
Dec 13
New
Dec 20
First Quarter
Dec 28
Full

Hourly Weather History & Observations

Time (EST) Temp. Windchill Dew Point Humidity Pressure Visibility Wind Dir Wind Speed Gust Speed Precip Events Conditions
12:15 AM 42.8 °F - 35.6 °F 76% 30.31 in 7.0 mi Calm Calm - N/A   Clear
12:35 AM 44.6 °F - 37.4 °F 76% 30.31 in 7.0 mi Calm Calm - N/A   Clear
12:55 AM 42.8 °F 41.1 °F 35.6 °F 76% 30.31 in 7.0 mi NNE 3.5 mph - N/A   Clear
1:15 AM 42.8 °F - 35.6 °F 76% 30.31 in 7.0 mi Calm Calm - N/A   Clear
1:35 AM 42.8 °F - 35.6 °F 76% 30.31 in 7.0 mi Calm Calm - N/A   Clear
1:55 AM 41.0 °F - 35.6 °F 81% 30.31 in 5.0 mi Calm Calm - N/A   Haze
2:15 AM 41.0 °F - 35.6 °F 81% 30.31 in 7.0 mi Calm Calm - N/A   Clear
2:35 AM 39.2 °F - 33.8 °F 81% 30.32 in 4.0 mi Calm Calm - N/A   Haze
2:55 AM 41.0 °F 38.0 °F 35.6 °F 81% 30.31 in 5.0 mi North 4.6 mph - N/A   Haze
3:15 AM 39.2 °F - 33.8 °F 81% 30.32 in 5.0 mi Calm Calm - N/A   Haze
3:35 AM 41.0 °F - 35.6 °F 81% 30.31 in 5.0 mi Calm Calm - N/A   Haze
3:55 AM 41.0 °F - 35.6 °F 81% 30.31 in 5.0 mi Calm Calm - N/A   Haze
4:15 AM 37.4 °F - 33.8 °F 87% 30.31 in 5.0 mi Calm Calm - N/A   Haze
4:35 AM 41.0 °F - 35.6 °F 81% 30.31 in 7.0 mi Calm Calm - N/A   Clear
4:55 AM 37.4 °F - 33.8 °F 87% 30.31 in 4.0 mi Calm Calm - N/A   Haze
5:15 AM 37.4 °F - 32.0 °F 81% 30.31 in 4.0 mi Calm Calm - N/A   Haze
5:35 AM 37.4 °F 34.9 °F 33.8 °F 87% 30.32 in 5.0 mi NNE 3.5 mph - N/A   Haze
5:55 AM 37.4 °F - 33.8 °F 87% 30.33 in 4.0 mi Calm Calm - N/A   Clear
6:15 AM 41.0 °F - 35.6 °F 81% 30.33 in 7.0 mi Calm Calm - N/A   Clear
6:35 AM 39.2 °F - 33.8 °F 81% 30.33 in 4.0 mi Calm Calm - N/A   Haze
6:55 AM 37.4 °F - 33.8 °F 87% 30.34 in 4.0 mi Calm Calm - N/A   Clear
7:15 AM 35.6 °F - 32.0 °F 87% 30.34 in 4.0 mi Calm Calm - N/A   Haze
7:35 AM 41.0 °F - 35.6 °F 81% 30.35 in 7.0 mi Calm Calm - N/A   Clear
7:55 AM 41.0 °F - 35.6 °F 81% 30.35 in 5.0 mi Calm Calm - N/A   Haze
8:15 AM 41.0 °F - 35.6 °F 81% 30.35 in 5.0 mi Calm Calm - N/A   Haze
8:35 AM 37.4 °F - 33.8 °F 87% 30.36 in 5.0 mi Calm Calm - N/A   Haze
8:55 AM 41.0 °F - 35.6 °F 81% 30.37 in 7.0 mi Calm Calm - N/A   Clear
9:15 AM 44.6 °F - 37.4 °F 76% 30.37 in 10.0 mi Calm Calm - N/A   Clear
9:35 AM 48.2 °F - 37.4 °F 66% 30.37 in 10.0 mi Calm Calm - N/A   Clear
9:55 AM 50.0 °F - 37.4 °F 62% 30.38 in 10.0 mi Calm Calm - N/A   Clear
10:15 AM 51.8 °F - 37.4 °F 58% 30.38 in 10.0 mi Calm Calm - N/A   Clear
10:35 AM 55.4 °F - 37.4 °F 51% 30.38 in 10.0 mi East 4.6 mph - N/A   Clear
10:55 AM 59.0 °F - 37.4 °F 45% 30.38 in 10.0 mi ENE 3.5 mph - N/A   Clear
11:15 AM 59.0 °F - 41.0 °F 51% 30.37 in 10.0 mi Calm Calm - N/A   Clear
11:35 AM 60.8 °F - 41.0 °F 48% 30.37 in 10.0 mi Calm Calm - N/A   Clear
11:55 AM 60.8 °F - 41.0 °F 48% 30.36 in 10.0 mi Calm Calm - N/A   Clear
12:15 PM 62.6 °F - 39.2 °F 42% 30.35 in 10.0 mi South 4.6 mph - N/A   Clear
12:35 PM 64.4 °F - 37.4 °F 37% 30.33 in 10.0 mi South 4.6 mph - N/A   Clear
12:55 PM 64.4 °F - 35.6 °F 34% 30.32 in 10.0 mi SW 3.5 mph - N/A   Scattered Clouds
1:15 PM 68.0 °F - 32.0 °F 26% 30.32 in 10.0 mi South 9.2 mph - N/A   Mostly Cloudy
1:35 PM 66.2 °F - 32.0 °F 28% 30.31 in 10.0 mi South 6.9 mph - N/A   Mostly Cloudy
1:55 PM 66.2 °F - 32.0 °F 28% 30.31 in 10.0 mi South 8.1 mph - N/A   Scattered Clouds
2:15 PM 64.4 °F - 32.0 °F 30% 30.31 in 10.0 mi South 5.8 mph - N/A   Scattered Clouds
2:35 PM 64.4 °F - 32.0 °F 30% 30.30 in 10.0 mi SE 4.6 mph - N/A   Scattered Clouds
2:55 PM 64.4 °F - 32.0 °F 30% 30.30 in 10.0 mi South 4.6 mph - N/A   Scattered Clouds
3:15 PM 64.4 °F - 33.8 °F 32% 30.30 in 10.0 mi South 5.8 mph - N/A   Clear
3:35 PM 66.2 °F - 32.0 °F 28% 30.29 in 10.0 mi South 5.8 mph - N/A   Clear
3:55 PM 64.4 °F - 32.0 °F 30% 30.30 in 10.0 mi South 6.9 mph - N/A   Mostly Cloudy
4:15 PM 64.4 °F - 32.0 °F 30% 30.30 in 10.0 mi Calm Calm - N/A   Mostly Cloudy
4:35 PM 64.4 °F - 32.0 °F 30% 30.29 in 10.0 mi SSE 4.6 mph - N/A   Scattered Clouds
4:55 PM 64.4 °F - 32.0 °F 30% 30.29 in 10.0 mi SSE 3.5 mph - N/A   Clear
5:15 PM 62.6 °F - 33.8 °F 34% 30.30 in 10.0 mi South 3.5 mph - N/A   Clear
5:35 PM 62.6 °F - 33.8 °F 34% 30.30 in 10.0 mi South 4.6 mph - N/A   Mostly Cloudy
5:55 PM 62.6 °F - 32.0 °F 32% 30.30 in 10.0 mi SSE 3.5 mph - N/A   Mostly Cloudy
6:15 PM 60.8 °F - 33.8 °F 36% 30.31 in 10.0 mi Calm Calm - N/A   Mostly Cloudy
6:35 PM 60.8 °F - 33.8 °F 36% 30.31 in 10.0 mi SE 3.5 mph - N/A   Scattered Clouds
6:55 PM 60.8 °F - 33.8 °F 36% 30.31 in 10.0 mi Calm Calm - N/A   Clear
7:15 PM 59.0 °F - 33.8 °F 39% 30.31 in 10.0 mi Calm Calm - N/A   Clear
7:35 PM 59.0 °F - 33.8 °F 39% 30.31 in 10.0 mi Calm Calm - N/A   Scattered Clouds
7:55 PM 57.2 °F - 35.6 °F 44% 30.31 in 10.0 mi Calm Calm - N/A   Mostly Cloudy
8:15 PM 57.2 °F - 35.6 °F 44% 30.32 in 10.0 mi Calm Calm - N/A   Mostly Cloudy
8:55 PM 55.4 °F - 35.6 °F 47% 30.31 in 10.0 mi Calm Calm - N/A   Scattered Clouds
9:15 PM 53.6 °F - 37.4 °F 54% 30.32 in 10.0 mi Calm Calm - N/A   Scattered Clouds
9:35 PM 53.6 °F - 37.4 °F 54% 30.32 in 10.0 mi Calm Calm - N/A   Clear
9:55 PM 53.6 °F - 37.4 °F 54% 30.32 in 10.0 mi Calm Calm - N/A   Scattered Clouds
10:15 PM 53.6 °F - 37.4 °F 54% 30.32 in 10.0 mi ENE 3.5 mph - N/A   Mostly Cloudy
10:35 PM 53.6 °F - 39.2 °F 58% 30.32 in 10.0 mi Calm Calm - N/A   Scattered Clouds
10:55 PM 53.6 °F - 39.2 °F 58% 30.33 in 10.0 mi ENE 3.5 mph - N/A   Scattered Clouds
11:15 PM 53.6 °F - 39.2 °F 58% 30.33 in 10.0 mi ENE 3.5 mph - N/A   Mostly Cloudy
11:35 PM 53.6 °F - 39.2 °F 58% 30.33 in 10.0 mi ENE 3.5 mph - N/A   Mostly Cloudy
11:55 PM 53.6 °F - 39.2 °F 58% 30.33 in 10.0 mi Calm Calm - N/A   Scattered Clouds